Date String (YYYY-MM-DD hh:mm:ss) UTC,Instrument flags,Ambient pressure (hPa),Sample flow (lpm),Bypass flow (lpm),Sample temperature (°C),Ambient temperature (°C),ASC tube jacket temperature (°C),LED temperature (°C),Box temperature (°C),Sample RH (%),Span deviation,Mass concentration (μg/m³),Mass concentration (μg/m³),Mass concentration (μg/m³)
DateTimeUTC,F1_M11,P_M11,Q1_M11,Q2_M11,T1_M11,T2_M11,T3_M11,T4_M11,T5_M11,U1_M11,ZSPAN_M11,X0_M11,X2_M11,X1_M11
2022-11-18 15:00:00,,0832.0,5.01,0.00,22.4,20.9,00.0,31.4,24.2,08.2,0000.0,0007.58,0005.32,0005.02
2022-11-18 15:01:00,,0832.0,5.00,0.00,22.4,20.9,00.0,31.4,24.2,08.2,0000.0,0007.56,0005.34,0005.01
2022-11-18 15:02:00,,0832.0,4.99,0.00,22.4,21.3,00.0,31.3,24.2,08.2,0000.0,0007.61,0005.36,0005.02
2022-11-18 15:03:00,,0832.1,5.01,0.00,22.5,22.2,00.0,31.3,24.4,08.1,0000.0,0007.66,0005.38,0005.04
2022-11-18 15:04:00,,0832.1,5.01,0.00,22.6,22.7,00.0,31.3,24.5,08.1,0000.0,0007.60,0005.39,0005.05
2022-11-18 15:05:00,,0832.1,5.00,0.00,22.6,22.4,00.0,31.4,24.5,08.1,0000.0,0007.57,0005.40,0005.07
2022-11-18 15:06:00,,0832.1,5.00,0.00,22.6,22.1,00.0,31.4,24.5,08.1,0000.0,0007.53,0005.40,0005.08
2022-11-18 15:07:00,,0832.1,4.99,0.00,22.6,21.8,00.0,31.4,24.4,08.1,0000.0,0007.49,0005.41,0005.10
2022-11-18 15:08:00,,0832.1,5.00,0.00,22.6,21.6,00.0,31.4,24.4,08.1,0000.0,0007.57,0005.45,0005.11
2022-11-18 15:09:00,,0832.1,5.01,0.00,22.6,21.4,00.0,31.4,24.4,08.1,0000.0,0007.58,0005.47,0005.13
2022-11-18 15:10:00,,0832.1,5.01,0.00,22.5,21.3,00.0,31.4,24.4,08.0,0000.0,0007.63,0005.50,0005.15
2022-11-18 15:11:00,,0832.1,4.99,0.00,22.5,21.2,00.0,31.4,24.3,08.1,0000.0,0007.71,0005.52,0005.17
2022-11-18 15:12:00,,0832.1,5.00,0.00,22.5,21.1,00.0,31.4,24.3,08.1,0000.0,0007.69,0005.52,0005.18
2022-11-18 15:13:00,,0832.1,5.00,0.00,22.5,21.1,00.0,31.4,24.3,08.1,0000.0,0007.71,0005.52,0005.19
2022-11-18 15:14:00,,0832.1,5.01,0.00,22.5,21.0,00.0,31.4,24.3,08.1,0000.0,0007.68,0005.52,0005.18
2022-11-18 15:15:00,,0832.1,5.00,0.00,22.5,21.0,00.0,31.4,24.3,08.1,0000.0,0007.68,0005.52,0005.18
2022-11-18 15:16:00,,0832.1,4.99,0.00,22.4,21.0,00.0,31.4,24.3,08.1,0000.0,0007.66,0005.50,0005.17
2022-11-18 15:17:00,,0832.1,5.00,0.00,22.4,21.0,00.0,31.4,24.3,08.1,0000.0,0007.66,0005.50,0005.17
2022-11-18 15:18:00,,0832.1,5.00,0.00,22.4,21.0,00.0,31.4,24.2,08.1,0000.0,0007.71,0005.50,0005.17
2022-11-18 15:19:00,,0832.1,5.02,0.00,22.5,21.8,00.0,31.3,24.4,08.1,0000.0,0007.69,0005.49,0005.17
2022-11-18 15:20:00,,0832.2,4.99,0.00,22.6,22.7,00.0,31.3,24.6,08.0,0000.0,0007.74,0005.51,0005.17
2022-11-18 15:21:00,,0832.1,4.99,0.00,22.7,22.8,00.0,31.4,24.7,08.0,0000.0,0007.72,0005.50,0005.16
2022-11-18 15:22:00,,0832.1,5.00,0.00,22.7,22.4,00.0,31.4,24.6,08.0,0000.0,0007.64,0005.49,0005.16
2022-11-18 15:23:00,,0832.2,5.02,0.00,22.7,22.1,00.0,31.4,24.5,07.9,0000.0,0007.72,0005.49,0005.16
2022-11-18 15:24:00,,0832.1,5.00,0.00,22.7,21.9,00.0,31.5,24.5,07.9,0000.0,0007.93,0005.49,0005.16
2022-11-18 15:25:00,,0832.2,4.99,0.00,22.6,21.7,00.0,31.5,24.5,07.9,0000.0,0007.89,0005.48,0005.15
2022-11-18 15:26:00,,0832.3,5.00,0.00,22.6,21.5,00.0,31.5,24.5,07.9,0000.0,0007.93,0005.49,0005.16
2022-11-18 15:27:00,,0832.3,5.01,0.00,22.6,21.3,00.0,31.5,24.4,07.9,0000.0,0007.96,0005.51,0005.17
2022-11-18 15:28:00,,0832.3,5.00,0.00,22.6,21.3,00.0,31.5,24.4,07.9,0000.0,0007.97,0005.51,0005.17
2022-11-18 15:29:00,,0832.2,4.99,0.00,22.6,21.2,00.0,31.5,24.4,07.9,0000.0,0007.98,0005.51,0005.16
2022-11-18 15:30:00,,0832.2,5.01,0.00,22.6,21.2,00.0,31.5,24.4,07.9,0000.0,0007.94,0005.48,0005.15
2022-11-18 15:31:00,,0832.2,5.01,0.00,22.5,21.1,00.0,31.5,24.3,07.9,0000.0,0007.91,0005.46,0005.15
2022-11-18 15:32:00,,0832.3,4.99,0.00,22.5,21.1,00.0,31.5,24.3,08.0,0000.0,0007.94,0005.47,0005.14
2022-11-18 15:33:00,,0832.3,5.00,0.00,22.5,21.1,00.0,31.4,24.3,08.0,0000.0,0007.90,0005.45,0005.13
2022-11-18 15:34:00,,0832.2,5.01,0.00,22.5,21.0,00.0,31.4,24.2,08.1,0000.0,0007.89,0005.43,0005.11
2022-11-18 15:35:00,,0832.2,5.00,0.00,22.4,21.0,00.0,31.4,24.2,08.1,0000.0,0007.53,0005.40,0005.11
2022-11-18 15:36:00,,0832.2,5.00,0.00,22.4,21.0,00.0,31.4,24.1,08.1,0000.0,0007.51,0005.40,0005.10
2022-11-18 15:37:00,,0832.3,5.01,0.00,22.4,21.0,00.0,31.4,24.2,08.1,0000.0,0007.60,0005.41,0005.10
2022-11-18 15:38:00,,0832.2,5.00,0.00,22.4,21.6,00.0,31.3,24.3,08.1,0000.0,0007.61,0005.41,0005.10
2022-11-18 15:39:00,,0832.3,5.00,0.00,22.6,22.7,00.0,31.3,24.5,08.1,0000.0,0007.71,0005.44,0005.10
2022-11-18 15:40:00,,0832.2,4.98,0.00,22.6,22.9,00.0,31.4,24.7,08.0,0000.0,0007.69,0005.46,0005.10
2022-11-18 15:41:00,,0832.3,5.00,0.00,22.7,22.6,00.0,31.4,24.6,08.0,0000.0,0007.69,0005.47,0005.11
2022-11-18 15:42:00,,0832.2,5.02,0.00,22.7,22.3,00.0,31.5,24.6,08.0,0000.0,0007.75,0005.48,0005.11
2022-11-18 15:43:00,,0832.2,4.99,0.00,22.7,22.0,00.0,31.5,24.6,08.0,0000.0,0007.72,0005.47,0005.10
2022-11-18 15:44:00,,0832.2,4.99,0.00,22.7,21.8,00.0,31.5,24.5,08.0,0000.0,0007.74,0005.47,0005.11
2022-11-18 15:45:00,,0832.3,4.99,0.00,22.7,21.7,00.0,31.5,24.5,08.0,0000.0,0007.85,0005.49,0005.12
2022-11-18 15:46:00,,0832.3,5.01,0.00,22.6,21.6,00.0,31.5,24.5,07.9,0000.0,0007.88,0005.50,0005.13
2022-11-18 15:47:00,,0832.3,5.00,0.00,22.6,21.5,00.0,31.5,24.4,07.9,0000.0,0007.87,0005.50,0005.13
2022-11-18 15:48:00,,0832.3,5.00,0.00,22.6,21.4,00.0,31.5,24.4,08.0,0000.0,0007.79,0005.49,0005.14
2022-11-18 15:49:00,,0832.2,4.99,0.00,22.6,21.4,00.0,31.5,24.4,08.1,0000.0,0007.71,0005.46,0005.14
2022-11-18 15:50:00,,0832.1,5.01,0.00,22.6,21.3,00.0,31.5,24.4,08.1,0000.0,0007.62,0005.44,0005.14
2022-11-18 15:51:00,,0832.1,5.01,0.00,22.6,21.3,00.0,31.5,24.3,08.2,0000.0,0007.66,0005.45,0005.16
2022-11-18 15:52:00,,0832.1,5.00,0.00,22.6,21.2,00.0,31.5,24.3,08.3,0000.0,0007.65,0005.44,0005.14
2022-11-18 15:53:00,,0832.1,4.98,0.00,22.6,21.2,00.0,31.5,24.3,08.4,0000.0,0007.55,0005.44,0005.14
2022-11-18 15:54:00,,0832.1,4.99,0.00,22.5,21.2,00.0,31.5,24.3,08.4,0000.0,0007.57,0005.46,0005.15
2022-11-18 15:55:00,,0832.1,5.01,0.00,22.5,21.1,00.0,31.5,24.3,08.5,0000.0,0007.60,0005.47,0005.15
2022-11-18 15:56:00,,0832.1,5.01,0.00,22.5,21.1,00.0,31.4,24.3,08.6,0000.0,0007.51,0005.48,0005.16
2022-11-18 15:57:00,,0832.0,5.01,0.00,22.5,21.1,00.0,31.4,24.3,08.6,0000.0,0007.50,0005.48,0005.16
2022-11-18 15:58:00,,0832.1,4.99,0.00,22.5,21.1,00.0,31.4,24.2,08.7,0000.0,0007.59,0005.52,0005.17
2022-11-18 15:59:00,,0832.0,5.00,0.00,22.5,21.1,00.0,31.4,24.2,08.7,0000.0,0007.60,0005.54,0005.17
